View Data : List Evapotranspiration (ETo ) Reports


 
Search Evapotranspiration Reports
Station Fields:
Location:
Date Range:
Start Date:   End Date:
Searched: Report date on 6/17/2018.
Showing 1 - 50 of 111 Records. <Back  Page   Next>
DateTimeStation NumberStation NameGaugeReadingRefill LevelEvap AmtView
6/17/2018  12:00 AM  MN-AA-5  East Bethel 3.1 NE 3.77  0.01   
6/17/2018  5:00 AM  NY-CQ-22  Fredonia 0.8 WNW 7.70  0.12   
6/17/2018  5:20 AM  MO-CP-7  Boonville 0.5 ESE 9.57  0.24   
6/17/2018  5:30 AM  AL-MD-25  Huntsville 4.4 ENE 7.67  0.13   
6/17/2018  5:30 AM  IN-PT-12  Valparaiso 4.3 SW 2.78  0.09   
6/17/2018  5:30 AM  IN-TN-1  Atlanta 4.4 W 6.40  0.20   
6/17/2018  6:00 AM  CA-SJ-5  Lodi 1.0 NNW 1.43  0.21   
6/17/2018  6:00 AM  CO-ME-79  Grand Junction 3.9 WSW 2.90  0.10   
6/17/2018  6:00 AM  MD-MG-54  Germantown 4.6 NNE 3.67  0.15   
6/17/2018  6:00 AM  NH-CH-21  Keene 2.0 SE 4.69  0.18   
6/17/2018  6:00 AM  NH-CS-7  Lancaster 0.5 N 4.70  0.15   
6/17/2018  6:00 AM  TX-ER-4  Stephenville 2.6 NNW 7.20  0.20   
6/17/2018  6:30 AM  IL-WN-2  Roscoe 1.6 ESE 4.69  0.19   
6/17/2018  6:30 AM  IA-LN-7  Central City 6.7 W 6.10  0.18   
6/17/2018  6:30 AM  WI-MC-4  Two Rivers 1.4 N 2.88  0.06   
6/17/2018  6:40 AM  TN-PT-3  Byrdstown 2.8 SSW 1.37  0.16   
6/17/2018  6:45 AM  WA-SJ-28  Lopez Island 3.9 NNE 5.91  0.11   
6/17/2018  7:00 AM  AL-JC-3  Hollytree 0.6 NNE 3.02  0.33   
6/17/2018  7:00 AM  AZ-PN-50  Saddlebrooke 1.5 SW 2.50  0.04   
6/17/2018  7:00 AM  CA-HM-5  Mckinleyville 7.3 ESE 4.96  0.13   
6/17/2018  7:00 AM  CA-SD-132  Descanso 3.7N 0.52  0.12   
6/17/2018  7:00 AM  CA-SD-12  Poway 3.2NE 9.48  0.07   
6/17/2018  7:00 AM  CA-SN-100  Glen Ellen 1.9 NNW 1.30  0.09   
6/17/2018  7:00 AM  CA-TH-11  Red Bluff 5.1 NNW 1.65  0.20   
6/17/2018  7:00 AM  CO-BO-57  Nederland 5.8 E 1.72  0.11   
6/17/2018  7:00 AM  CO-EP-24  Black Forest 2.1 SSE 7.09  0.18   
6/17/2018  7:00 AM  CO-EP-188  Colorado Springs 3.7 ENE 3.72  0.18   
6/17/2018  7:00 AM  CO-GN-18  Crested Butte 6.2 N 0.48  0.06   
6/17/2018  7:00 AM  CO-JF-63  Golden 4.8 NW 5.40  0.18   
6/17/2018  7:00 AM  CO-LR-623  Fort Collins 6.1 SW 1.82  0.21   
6/17/2018  7:00 AM  CO-LG-6  Sterling 3.7 NNE 0.50  0.20   
6/17/2018  7:00 AM  FL-MR-66  The Villages 3.7 NNW 2.16  0.16   
6/17/2018  7:00 AM  GA-FY-28  Fayetteville 2.1 NNE 7.58  0.09   
6/17/2018  7:00 AM  IL-CP-1  Homer 2.0 N 6.20  0.18   
6/17/2018  7:00 AM  IL-GY-1  Carbon Hill 3.1 N 6.51  0.22   
6/17/2018  7:00 AM  IL-WF-14  El Paso 5.2 NNW 3.48  0.10   
6/17/2018  7:00 AM  IN-AL-5  Huntertown 2.6 ESE 4.55  0.15   
6/17/2018  7:00 AM  IN-BN-53  Zionsville 4.3 NNW 0.87  0.12   
6/17/2018  7:00 AM  IN-HR-5  Milltown 5.7 SSE 7.31  0.30   
6/17/2018  7:00 AM  IN-MR-13  Speedway 6.2 SSW 4.72  0.27   
6/17/2018  7:00 AM  IN-OW-9  Spencer 7.0 S 8.70  0.19   
6/17/2018  7:00 AM  IA-LN-36  Shellsburg 2.9 S 6.00  0.20   
6/17/2018  7:00 AM  IA-TY-2  New Market 4.7 N 6.68  0.18   
6/17/2018  7:00 AM  KS-CQ-2  Sedan 0.4 NE 9.70  0.20   
6/17/2018  7:00 AM  KS-MP-42  McPherson 2.9 E 9.99  0.26   
6/17/2018  7:00 AM  KS-SG-111  Wichita 5.9 WSW 1.64  0.29   
6/17/2018  7:00 AM  KY-FR-1  Frankfort 3.3 NE 4.95  0.25   
6/17/2018  7:00 AM  KY-ME-8  Harrodsburg 10.8 NW 7.00  0.19   
6/17/2018  7:00 AM  ME-LN-1  Newcastle 2.1 SW 4.86  0.18   
6/17/2018  7:00 AM  ME-YK-2  Kittery Point 0.8 WSW 3.33  0.16